Regional Weather Roundup
Issued by NWS Upton, NY

Current Version | Previous Version | Text Only | Print | Product List | Glossary Off
Versions: 1 2 3 4 5 6 7 8 9 10 11 12 13 14 15 16 17 18 19 20 21 22 23 24 25 26 27 28 29 30 31 32 33 34 35 36 37 38 39 40 41 42 43 44 45 46 47 48 49 50

000
ASUS41 KOKX 280307
RWROKX

REGIONAL WEATHER ROUNDUP
NATIONAL WEATHER SERVICE NEW YORK NY
1100 PM EDT MON APR 27 2015

NOTE: "FAIR" INDICATES FEW OR NO CLOUDS BELOW 12,000 FEET WITH NO
SIGNIFICANT WEATHER AND/OR OBSTRUCTIONS TO VISIBILITY.

NYZ071-072-176-178-NJZ106-104-280400-
NEW YORK CITY METRO AREA


CITY           SKY/WX    TMP DP  RH WIND       PRES   REMARKS
CENTRAL PARK   CLOUDY    54  34  46 VRB5      29.75R
LAGUARDIA APRT CLOUDY    54  35  48 NW16      29.72R
KENNEDY INTL   CLOUDY    56  33  42 NW21G28   29.72R
NEWARK/LIBERTY MOCLDY    54  34  46 NW17      29.73S
BRNX BOT. GARD   N/A     52  34  50 N5        29.74R
TETERBORO      CLOUDY    53  34  48 NW14G22   29.73R
$$

NYZ177-179-078>081-280400-
LONG ISLAND NEW YORK

CITY           SKY/WX    TMP DP  RH WIND       PRES   REMARKS
FARMINGDALE    CLOUDY    54  37  52 N15G22    29.70R
ISLIP          MOCLDY    52  39  61 NW17G24   29.67R
SHIRLEY        CLOUDY    52  39  61 NW13      29.68R
WESTHAMPTON    CLOUDY    52  36  54 NW13      29.67S
MONTAUK POINT    N/A     50  39  66 NW7       29.64S
$$

NYZ052-065-067-280400-
HUDSON VALLEY

CITY           SKY/WX    TMP DP  RH WIND       PRES   REMARKS
WHITE PLAINS   MOCLDY    50  37  61 NW16G23   29.70S
NEWBURGH       MOCLDY    50  39  66 N12G21    29.75
MONTGOMERY     CLOUDY    50  38  63 NW9       29.73S
POUGHKEEPSIE   LGT RAIN  51  40  65 W6        29.72F
ALBANY         DRIZZLE   51  39  63 N10G21    29.75R
$$

NJZ001-105-106-008-010-013-015-019>022-104-280400-
NEW JERSEY

CITY           SKY/WX    TMP DP  RH WIND       PRES   REMARKS
NEWARK/LIBERTY MOCLDY    54  34  46 NW17      29.73S
TETERBORO      CLOUDY    53  34  48 NW14G22   29.73R
CALDWELL       CLOUDY    52  35  52 N8        29.75R
MORRISTOWN     CLOUDY    54  34  47 NW7       29.75S
SOMERVILLE     CLOUDY    52  33  48 NW12      29.75S
SUSSEX         CLOUDY    50  35  56 VRB7G17   29.77S
ANDOVER          N/A     49  35  58 N8        29.77S
TRENTON        CLOUDY    51  32  48 NW8       29.76S
MILLVILLE      MOCLDY    53  33  46 NW9       29.78R
ATLANTIC CITY  CLOUDY    53  33  46 NW14      29.75S
WRIGHTSTOWN    NOT AVBL
TOMS RIVER     CLOUDY    52  30  43 NW9G20    29.75R
BELMAR         CLOUDY    52  30  43 NW17      29.73S
$$

PAZ047>061-062-071-280400-
EASTERN PENNSYLVANIA

CITY           SKY/WX    TMP DP  RH WIND       PRES   REMARKS
PHILADELPHIA   PTCLDY    53  33  46 N16       29.80R
ALLENTOWN      CLOUDY    51  34  52 NW10      29.80S
SCRANTON       CLOUDY    47  37  68 N12       29.83R
$$

CTZ002-004>006-009-010-012-RIZ004-006-007-MAZ004-011-015-280400-
SOUTHERN NEW ENGLAND
 IN CT

CITY           SKY/WX    TMP DP  RH WIND       PRES   REMARKS
BRADLEY INTL   LGT RAIN  52  38  58 N9        29.67R
HARTFORD       CLOUDY    52  37  56 N15       29.67S
DANBURY        CLOUDY    49  38  65 NW10      29.73R
WTRBRY/OXFORD  CLOUDY    48  37  66 NW8       29.70S
BRIDGEPORT     PTCLDY    53  40  61 NW14      29.68S
MERIDEN        CLOUDY    53  37  54 NW12      29.68R
NEW HAVEN      CLOUDY    53  38  56 NW9G18    29.67S
CHESTER        DRIZZLE   52  37  58 N10G18    29.66R
GROTON         MOCLDY    52  37  56 N12G23    29.63R
WILLIMANTIC    PTCLDY    50  38  63 N10G23    29.64S

 IN RI

CITY           SKY/WX    TMP DP  RH WIND       PRES   REMARKS
PROVIDENCE     PTCLDY    50  38  63 NW8       29.61R
BLOCK ISLAND   PTCLDY    48  36  61 NW9       29.61S
WESTERLY       MOCLDY    51  38  60 NW7       29.63R

 IN MA

CITY           SKY/WX    TMP DP  RH WIND       PRES   REMARKS
BOSTON         CLOUDY    47  44  90 N8        29.62S
WORCESTER      MOCLDY    47  35  63 N13       29.63R
WESTFIELD      CLOUDY    50  38  63 N12G26    29.67S
PROVINCETOWN   CLOUDY   N/A N/A N/A N6        29.59S
NANTUCKET      LGT RAIN  48  42  80 N16       29.56R
$$

ANZ330-335-338-340-345-350-353-355-280400-
COASTAL MARINE OBSERVATIONS


STATION/POSITION TIME  SKY/WX   TEMP    WIND        PRES    VSBY  WAVE
                                AIR SEA DIR/SP/G                  HT/PER
                 (UTC)          (F)     (DEG/KT/KT) (MB)    (MI)  (FT/S)
NY HARB ENTRANCE 0250            51 47  320/ 14/ 17 1005.5          2/ 8
4S FIRE IS       0203               45                N/A           2/ 9
20S FIRE ISLAND  0250            50 44  350/ 14/ 17 1005.0          2/ 9
23SW MTP         0250            48 44  330/ 10/ 12 1003.2          2/ 9
HUDSON CANYON    NOT AVBL
EXECUTION ROCKS  NOT AVBL
WESTERN LI SOUND NOT AVBL
CENTRAL LI SOUND NOT AVBL
EASTERN LI SOUND 0200            51     340/ 12/ 19   N/A
ROBBINS REEF     0200            54     330/ 12/ 17 1005.3
$$


>>>>>>>>>>>>>>>>>>>>>>>>>>>> KEY <<<<<<<<<<<<<<<<<<<<<<<<<<<
>                                                          <
>     SKY/WX - SKY CONDITION/PRESENT WEATHER               <
>     TMP    - TEMPERATURE IN FAHRENHEIT                   <
>     DP     - DEWPOINT IN FAHRENHEIT                      <
>     RH     - RELATIVE HUMIDITY IN PERCENT                <
>     WIND   - DIRECTION AND SPEED IN MPH                  <
>     PRES   - MEAN SEA LEVEL PRESSURE IN INCHES OF HG     <
>     WCI    - WIND CHILL INDEX                            <
>     VSB    - VISIBILITY IN MILES                         <
>     HX     - HEAT INDEX                                  <
>     TC     - TEMPERATURE IN CELSIUS                      <
>     VRB    - VARIABLE WIND DIRECTION                     <
>                                                          <
>>>>>>>>>>>>>>>>>>>>>>>>>>>> KEY <<<<<<<<<<<<<<<<<<<<<<<<<<<





USA.gov is the U.S. government's official web portal to all federal, state and local government web resources and services.